Location: Newark
(41.8083°N, 72.2500°W)
Time: 00:56:51
(UTC+00:00)

Vanguard 1 Rocket - Pass Details

Date: 08 December 2021
Orbit: 651 x 4224 km, 34.3° (Epoch: 15 January)

Event Time Altitude Azimuth Distance (km) Brightness Sun altitude
Exits shadow 10:47:59 13° 270° (W) 4,700 10.4 -13.7°
Maximum altitude 11:01:48 53° 200° (SSW) 3,880 10.5 -11.3°
Drops below altitude 10° 11:25:31 10° 133° (SE) 7,416 13.4 -7.2°
Sets 11:31:41 0° 129° (SE) 8,437 14.3 -6.2°
